This demonstration page uses our WeatherBlox Daily Observations layout. Learn more.

Left ArrowRight Arrow

41.86663, -103.66717

Hourly Observations for June 6, 2020

Temp ( °F °C ) Dew Point ( °F °C ) Humidity (%) Winds ( mph kmh ) Pressure ( in mb ) Visibility ( mi km ) Precip ( " mm )
12:53 am 00:53 Clear 73 22.8 60 15.6 64 64 ESE 20 31 29.70 1006 10 16 0.00 0.00
1:53 am 01:53 Clear 71 21.7 60 15.6 68 68 ESE 14 22 29.68 1005 10 16 0.00 0.00
2:53 am 02:53 Clear 69 20.6 58 14.4 68 68 ESE 23 37 29.68 1005 10 16 0.00 0.00
3:53 am 03:53 Clear 66 18.9 58 14.4 75 75 ESE 10 17 29.68 1005 10 16 0.00 0.00
4:53 am 04:53 Clear 66 18.9 58 14.4 75 75 E 9 15 29.68 1005 10 16 0.00 0.00
5:53 am 05:53 Sunny 68 20 59 15 73 73 VRB 5 7 29.70 1006 10 16 0.00 0.00
6:53 am 06:53 Partly Cloudy 68 20 60 15.6 76 76 ENE 9 15 29.68 1005 10 16 0.00 0.00
7:53 am 07:53 Sunny 70 21.1 61 16.1 73 73 ENE 7 11 29.67 1005 10 16 0.00 0.00
8:53 am 08:53 Sunny 76 24.4 61 16.1 60 60 ESE 14 22 29.63 1003 10 16 0.00 0.00
9:53 am 09:53 Sunny 78 25.6 61 16.1 56 56 SSW 3 6 29.64 1004 10 16 0.00 0.00
10:53 am 10:53 Sunny 83 28.3 60 15.6 46 46 SE 9 15 29.63 1003 10 16 0.00 0.00
11:53 am 11:53 Mostly Sunny 83 28.3 57 13.9 41 41 S 15 24 29.64 1004 10 16 0.00 0.00
12:53 pm 12:53 Sunny 84 28.9 51 10.6 32 32 SSW 10 17 29.59 1002 10 16 0.00 0.00
1:53 pm 13:53 Sunny 85 29.4 48 8.9 28 28 S 18 30 29.54 1001 10 16 0.00 0.00
2:53 pm 14:53 Sunny 89 31.7 50 10 26 26 S 26 43 29.50 999 10 16 0.00 0.00
3:53 pm 15:53 Sunny 94 34.4 47 8.3 20 20 S 28 44 29.45 997 10 16 0.00 0.00
4:53 pm 16:53 Sunny 92 33.3 48 8.9 22 22 S 26 43 29.42 996 10 16 0.00 0.00
5:41 pm 17:41 Hazy 86 30 49 9.4 28 28 SW 40 65 29.33 993 3 4 0.00 0.00
5:46 pm 17:46 Mostly Cloudy with Light Rain 75 23.9 53 11.7 46 46 WSW 46 74 29.42 996 1 2 0.00 0.00
5:53 pm 17:53 Mostly Cloudy with Light Rain 71 21.7 54 12.2 55 55 WSW 40 65 29.54 1000 3 5 0.00 0.00
6:00 pm 18:00 Mostly Cloudy with Light Rain 73 23 52 11 47 47 SW 36 57 29.47 998 5 8 0.00 0.00
6:53 pm 18:53 Sunny 70 21.1 54 12.2 57 57 ESE 9 15 29.55 1001 10 16 0.00 0.00
7:53 pm 19:53 Sunny 70 21.1 54 12.2 57 57 undefined N/A 29.54 1000 10 16 0.00 0.00
8:53 pm 20:53 Clear 65 18.3 54 12.2 68 68 W 10 17 29.54 1000 10 16 0.00 0.00
9:53 pm 21:53 Clear 63 17.2 56 13.3 78 78 WNW 8 13 29.56 1001 10 16 0.00 0.00
10:53 pm 22:53 Clear 60 15.6 55 12.8 84 84 NNW 7 11 29.56 1001 10 16 0.00 0.00
11:53 pm 23:53 Clear 59 15 55 12.8 87 87 Calm 29.55 1001 10 16 0.00 0.00

Powered by AerisWeather